Weather History for Missoula, MT

Change the Weather History Date:

Sunday, September 22, 2013

  Actual Average Record
Temperature  
Mean Temperature 55 °F 55 °F  
Max Temperature 61 °F 70 °F 91 °F (1938)
Min Temperature 49 °F 40 °F 25 °F (1993)
Degree Days  
Heating Degree Days 10 10  
Month to date heating degree days 56 146  
Since 1 July heating degree days 64 230  
Cooling Degree Days 0 0  
Month to date cooling degree days 87 13  
Year to date cooling degree days 579 330  
Growing Degree Days 6 (Base 50)    
Moisture  
Dew Point 45 °F    
Average Humidity 69    
Maximum Humidity 86    
Minimum Humidity 51    
Precipitation  
Precipitation 0.01 in 0.04 in 0.52 in (1898)
Month to date precipitation 0.35 0.90  
Year to date precipitation 6.66 10.93  
Snow  
Snow 0.00 in - - ()
Month to date snowfall 0.0  
Year to date snowfall 27.4  
Since 1 July snowfall T  
Snow Depth 0.00 in    
Sea Level Pressure  
Sea Level Pressure 29.70 in    
Wind  
Wind Speed 3 mph (SSE)    
Max Wind Speed 14 mph    
Max Gust Speed 17 mph    
Visibility 10 miles    
Events Rain    
T = Trace of Precipitation, MM = Missing Value Source: NWS Daily Summary

Daily Weather History Graph

Daily Weather History Graph

Search for Another Location

Airport:

Trip Planner

Search our weather history database for the weather conditions in past years. The results will help you decide how hot, cold, wet, or windy it might be!

Date:

Astronomy

Sep. 22, 2013 Rise Set
Actual Time 7:23 AM MDT 7:33 PM MDT
Civil Twilight 6:53 AM MDT 8:03 PM MDT
Nautical Twilight 6:17 AM MDT 8:39 PM MDT
Astronomical Twilight 5:40 AM MDT 9:15 PM MDT
Moon 9:10 PM MDT (9/22) 11:03 AM MDT (9/22)
Length of Visible Light 13h 10m
Length of Day
12h 09m
Waning Gibbous, 88% of the Moon is Illuminated
Sep 22
Waning Gibbous
Sep 26
Last Quarter
Oct 4
New
Oct 11
First Quarter
Oct 18
Full

Hourly Weather History & Observations

Time (MDT) Temp. Dew Point Humidity Pressure Visibility Wind Dir Wind Speed Gust Speed Precip Events Conditions
12:53 AM 60.1 °F 42.1 °F 51% 29.66 in 10.0 mi NW 9.2 mph - N/A   Overcast
1:53 AM 57.9 °F 43.0 °F 58% 29.64 in 10.0 mi Calm Calm - N/A   Overcast
2:53 AM 55.9 °F 43.0 °F 62% 29.66 in 10.0 mi Calm Calm - 0.00 in   Overcast
3:53 AM 55.0 °F 45.0 °F 69% 29.65 in 10.0 mi South 6.9 mph - N/A   Mostly Cloudy
4:53 AM 55.0 °F 48.0 °F 77% 29.65 in 10.0 mi ESE 4.6 mph - 0.00 in   Mostly Cloudy
5:53 AM 52.0 °F 46.0 °F 80% 29.66 in 10.0 mi ESE 3.5 mph - N/A   Mostly Cloudy
6:53 AM 51.1 °F 46.0 °F 83% 29.68 in 10.0 mi Calm Calm - N/A   Mostly Cloudy
7:53 AM 50.0 °F 46.0 °F 86% 29.69 in 10.0 mi NW 3.5 mph - N/A   Overcast
8:53 AM 52.0 °F 46.0 °F 80% 29.70 in 10.0 mi Calm Calm - N/A   Overcast
9:53 AM 54.0 °F 46.9 °F 77% 29.71 in 10.0 mi Calm Calm - N/A   Overcast
10:53 AM 55.9 °F 46.9 °F 72% 29.71 in 10.0 mi Calm Calm - N/A   Overcast
11:53 AM 59.0 °F 45.0 °F 60% 29.69 in 10.0 mi Variable 6.9 mph - N/A   Scattered Clouds
12:53 PM 61.0 °F 44.1 °F 54% 29.68 in 10.0 mi SSE 9.2 mph - N/A   Mostly Cloudy
1:53 PM 57.9 °F 48.9 °F 72% 29.69 in 10.0 mi South 10.4 mph - 0.00 in Rain Light Rain
2:53 PM 59.0 °F 45.0 °F 60% 29.68 in 10.0 mi SSE 8.1 mph - 0.00 in   Overcast
3:53 PM 59.0 °F 44.1 °F 58% 29.68 in 10.0 mi ESE 3.5 mph - 0.00 in Rain Light Rain
4:53 PM 57.0 °F 45.0 °F 64% 29.70 in 10.0 mi Calm Calm - 0.01 in   Overcast
5:53 PM 55.0 °F 50.0 °F 83% 29.73 in 10.0 mi SSE 5.8 mph - 0.00 in   Overcast
6:53 PM 55.9 °F 42.1 °F 60% 29.74 in 10.0 mi WSW 3.5 mph - N/A   Mostly Cloudy
7:53 PM 53.1 °F 43.0 °F 69% 29.76 in 10.0 mi South 4.6 mph - N/A   Partly Cloudy
8:53 PM 52.0 °F 42.1 °F 69% 29.76 in 10.0 mi Calm Calm - N/A   Mostly Cloudy
9:53 PM 54.0 °F 42.1 °F 64% 29.75 in 10.0 mi Calm Calm - N/A   Overcast
10:53 PM 51.1 °F 43.0 °F 74% 29.75 in 10.0 mi SSE 4.6 mph - N/A   Overcast
11:53 PM 50.0 °F 44.1 °F 80% 29.74 in 10.0 mi SE 3.5 mph - N/A   Overcast